[[{"header":{"parameterUnit":"m.s-1","parameterCategory":1,"la1":30.2991,"la2":30.254,"lo1":-89.0895,"lo2":-89.0444,"dy":0.0017,"dx":0.0017,"nx":28,"ny":28,"refTime":"2024-04-13T21:00:00:Z","depth":0,"parameterNumber":2,"parameterNumberName":"U-component_of_WINDS"},"data":[0,0,0,0,0,0,0,0,0,0,0,0,0,0,0,0,0,0,0,0,0,0,0,0,0,0,0,0,0,0,0,0,0,0,0,0,0,0,0,0,0,0,0,0,0,0,0,0,0,0,0,0,0,0,0,0,0,0,0.2965,0.2965,0,0.2987,0.2987,0.2987,0.2981,0.298,0.298,0.2979,0.3001,0.3002,0.3003,0,0,0,0,0,0,0,0,0,0,0,0,0,0.2916,0.2917,0.2965,0.2965,0.2966,0.2987,0.2987,0.2987,0.2981,0.298,0.298,0.2979,0.3001,0.3002,0.3003,0,0,0,0,0,0,0,0,0,0,0,0,0,0.2938,0.2918,0.2965,0.2965,0.2965,0.2987,0.2987,0.2987,0.2981,0.298,0.298,0.2979,0.3,0.3002,0.3003,0.3026,0,0,0.3008,0.3008,0,0,0,0,0,0,0,0,0.2937,0.294,0.2965,0.2965,0.2965,0.298,0.2978,0.3,0.2981,0.2975,0.2979,0.2979,0.2995,0.2996,0.3002,0.3027,0.3028,0.3008,0.3009,0.3009,0.301,0,0,0,0,0,0,0,0.2935,0.2939,0.2974,0.2965,0.2966,0.2963,0.2966,0.2982,0.2988,0.2976,0.2975,0.2978,0.2995,0.3001,0.3002,0.3028,0.3008,0.3009,0.301,0.301,0.307,0.3071,0,0,0,0,0,0,0.2934,0.2937,0.2973,0.2974,0.2949,0.2965,0.2967,0.2976,0.2988,0.2989,0.2978,0.2977,0.2998,0.3001,0.3003,0.3029,0.3009,0.3011,0.3011,0.3069,0.307,0.3071,0,0,0,0,0,0,0.2933,0.2937,0.2972,0.2956,0.296,0.2966,0.2976,0.2977,0.2983,0.299,0.2991,0.2983,0.2998,0.3001,0.302,0.303,0.3011,0.3013,0.3069,0.307,0.3071,0.3081,0,0,0,0,0,0,0.2931,0.2937,0.2946,0.2956,0.2961,0.2989,0.2977,0.2978,0.2986,0.2985,0.2995,0.2996,0.2998,0.3018,0.3021,0.3031,0.3014,0.3068,0.3069,0.307,0.308,0.3083,0.3085,0,0,0,0,0,0.293,0.2948,0.2946,0.2951,0.2973,0.299,0.2992,0.2994,0.2987,0.2995,0.3,0.2996,0.3028,0.3019,0.3024,0.3034,0.3067,0.3069,0.307,0.3079,0.3082,0.3085,0,0,0,0,0,0,0.2939,0.295,0.2948,0.297,0.2979,0.2988,0.3,0.2997,0.3008,0.3007,0.3008,0.301,0.3029,0.3034,0.3024,0.3056,0.3046,0.3049,0.3052,0.3055,0.3057,0.3055,0.3015,0,0,0,0,0,0.2944,0.2957,0.2966,0.2985,0.2989,0.2994,0.3001,0.3001,0.301,0.3014,0.302,0.3028,0.304,0.3048,0.3059,0.3081,0.3082,0.309,0.3093,0.3095,0.3096,0.3106,0.3109,0.3076,0.3076,0.3076,0,0,0.2954,0.2961,0.297,0.2987,0.2994,0.3006,0.2997,0.3011,0.302,0.3016,0.3034,0.3038,0.3048,0.3067,0.3076,0.3072,0.3106,0.3097,0.3098,0.3099,0.3108,0.3111,0.3114,0.3077,0.3077,0.3077,0,0,0.2978,0.2986,0.3002,0.3008,0.3019,0.3021,0.3025,0.3035,0.3037,0.3055,0.3051,0.3062,0.3083,0.3089,0.3095,0.3121,0.3117,0.3124,0.3136,0.3146,0.3149,0.3151,0.3158,0.3161,0.3126,0.3126,0.3126,0,0.2989,0.3009,0.301,0.3024,0.3031,0.3028,0.3043,0.305,0.3063,0.3068,0.3062,0.3087,0.3094,0.3114,0.312,0.3125,0.3129,0.3123,0.3148,0.315,0.3153,0.316,0.3163,0.3127,0.3127,0.3127,0.3127,0,0.3021,0.3034,0.3046,0.3058,0.3067,0.3082,0.3084,0.3093,0.3092,0.3095,0.3112,0.3119,0.3131,0.3136,0.3136,0.3156,0.3153,0.3148,0.3138,0.3156,0.3163,0.3166,0.3128,0.3128,0.3128,0.3127,0,0,0.3052,0.3064,0.3068,0.3073,0.3084,0.3094,0.3108,0.312,0.3126,0.3135,0.3146,0.3163,0.3158,0.3165,0.3165,0.3174,0.3191,0.3168,0.3168,0.3171,0.3212,0.3215,0.3218,0.3189,0.319,0.319,0.3211,0,0.3076,0.3101,0.3102,0.3124,0.3135,0.3132,0.3144,0.3151,0.3154,0.3163,0.3167,0.3178,0.3172,0.3175,0.3184,0.3187,0.3199,0.3186,0.3198,0.3199,0.3195,0.3222,0.3225,0.3244,0.3214,0.3214,0.3214,0,0.3108,0.3117,0.314,0.3147,0.3152,0.3163,0.3173,0.3183,0.319,0.3192,0.3199,0.3197,0.321,0.3201,0.3218,0.3209,0.3214,0.3217,0.3217,0.3218,0.3207,0.3221,0.325,0.3253,0.3219,0.3218,0.3218,0,0.3126,0.3145,0.316,0.3165,0.3174,0.3182,0.3186,0.3193,0.3199,0.3208,0.3212,0.3222,0.3227,0.3235,0.3235,0.3229,0.3252,0.3244,0.3253,0.3253,0.3257,0.3257,0.3286,0.3263,0.3263,0.3263,0.3263,0,0.3152,0.3166,0.3169,0.3178,0.3193,0.3194,0.3209,0.3212,0.3218,0.3228,0.3225,0.3234,0.3236,0.3245,0.3246,0.3259,0.3262,0.3262,0.3262,0.3262,0.3262,0.3265,0.3263,0.3263,0.3263,0.3263,0.3263,0,0.3175,0.3177,0.3194,0.3201,0.3203,0.3214,0.322,0.3228,0.3231,0.3243,0.3245,0.3249,0.3259,0.3261,0.3274,0.3274,0.329,0.3289,0.3287,0.3286,0.3295,0.3294,0.3326,0.333,0.3305,0.3306,0.3306,0,0.3191,0.3201,0.3209,0.3215,0.3219,0.323,0.3236,0.3237,0.3243,0.3252,0.3259,0.3269,0.3277,0.3294,0.3297,0.3306,0.3305,0.3315,0.3306,0.3305,0.3303,0.3302,0.3302,0.3317,0.3317,0.3317,0.3318,0,0.3218,0.3218,0.3227,0.3237,0.3244,0.3252,0.3259,0.3264,0.3265,0.3272,0.3283,0.3289,0.3301,0.3311,0.3319,0.3323,0.332,0.3321,0.3323,0.3322,0.332,0.332,0.329,0.332,0.332,0.3319,0.3319,0.3319,0.3237,0.3245,0.3252,0.3262,0.3267,0.3273,0.3281,0.3284,0.3293,0.3302,0.3302,0.3313,0.3319,0.3331,0.3335,0.3343,0.334,0.3344,0.3344,0.3345,0.3345,0.332,0.3345,0.3345,0.3345,0.3345,0.3345,0,0.3263,0.3266,0.3275,0.3285,0.3292,0.3289,0.3296,0.3303,0.3312,0.3318,0.3326,0.3337,0.3346,0.335,0.3358,0.3364,0.3363,0.3366,0.3365,0.3366,0.3348,0.3345,0.3367,0.3367,0.3367,0.3367,0.3367,0.3367,0.3277,0.329,0.3291,0.3307,0.3311,0.3321,0.3326,0.3331,0.3335,0.3348,0.3355,0.3358,0.3362,0.3371,0.3379,0.338,0.3382,0.3386,0.3386,0.3369,0.3367,0.3365,0.3362,0.3387,0.3387,0.3402,0.3403,0.3403]},{"header":{"parameterUnit":"m.s-1","parameterCategory":1,"la1":30.2991,"la2":30.254,"lo1":-89.0895,"lo2":-89.0444,"dy":0.0017,"dx":0.0017,"nx":28,"ny":28,"refTime":"2024-04-13T21:00:00:Z","depth":0,"parameterNumber":3,"parameterNumberName":"V-component_of_WINDS"},"data":[0,0,0,0,0,0,0,0,0,0,0,0,0,0,0,0,0,0,0,0,0,0,0,0,0,0,0,0,0,0,0,0,0,0,0,0,0,0,0,0,0,0,0,0,0,0,0,0,0,0,0,0,0,0,0,0,0,0,2.432,2.432,0,2.4344,2.4344,2.4345,2.4303,2.4302,2.43,2.4299,2.4324,2.4325,2.4327,0,0,0,0,0,0,0,0,0,0,0,0,0,2.4236,2.4238,2.432,2.432,2.432,2.4344,2.4344,2.4345,2.4303,2.4302,2.43,2.4298,2.4323,2.4325,2.4328,0,0,0,0,0,0,0,0,0,0,0,0,0,2.4268,2.4238,2.432,2.4303,2.4301,2.4344,2.4344,2.4345,2.4304,2.4302,2.43,2.4298,2.4322,2.4325,2.4328,2.4388,0,0,2.4337,2.4338,0,0,0,0,0,0,0,0,2.4266,2.4271,2.4305,2.4304,2.4303,2.4318,2.4324,2.4359,2.4304,2.4303,2.4299,2.4297,2.4324,2.4326,2.4335,2.4389,2.439,2.4337,2.4339,2.434,2.4341,0,0,0,0,0,0,0,2.4264,2.4269,2.4329,2.4305,2.4304,2.4293,2.4295,2.433,2.4325,2.4303,2.43,2.4303,2.4322,2.4333,2.4336,2.4391,2.4337,2.434,2.4342,2.4343,2.4492,2.4494,0,0,0,0,0,0,2.4264,2.4268,2.4329,2.433,2.4279,2.4296,2.4299,2.4315,2.4324,2.4324,2.4305,2.4301,2.4329,2.4332,2.4336,2.4405,2.434,2.4343,2.4345,2.449,2.4493,2.4495,0,0,0,0,0,0,2.4262,2.427,2.4328,2.4298,2.4305,2.43,2.4319,2.4317,2.4327,2.4326,2.4325,2.4317,2.4327,2.4332,2.4375,2.4406,2.4344,2.4347,2.4487,2.4491,2.4494,2.4545,0,0,0,0,0,0,2.426,2.4269,2.4293,2.4299,2.4306,2.4367,2.4321,2.4319,2.4332,2.4328,2.4336,2.4336,2.4326,2.4371,2.4378,2.4409,2.4349,2.4485,2.4489,2.4493,2.4541,2.455,2.4558,0,0,0,0,0,2.4257,2.4307,2.4294,2.4302,2.4336,2.4369,2.4373,2.436,2.4335,2.4358,2.4357,2.4335,2.4401,2.4375,2.4383,2.4415,2.4483,2.4488,2.4492,2.4537,2.4548,2.4558,0,0,0,0,0,0,2.4305,2.4308,2.4294,2.4347,2.4358,2.4361,2.439,2.4373,2.4391,2.4386,2.437,2.4372,2.4418,2.4421,2.4392,2.4473,2.4438,2.4444,2.4469,2.4479,2.4488,2.4486,2.4352,0,0,0,0,0,2.4322,2.4349,2.4349,2.4396,2.4402,2.4395,2.4409,2.4399,2.4409,2.4414,2.4416,2.4426,2.4449,2.4465,2.4486,2.4541,2.4541,2.4567,2.4575,2.4582,2.4588,2.4615,2.4626,2.4511,2.4511,2.4511,0,0,2.4357,2.4362,2.438,2.4406,2.4413,2.444,2.44,2.4431,2.445,2.4418,2.4458,2.446,2.4471,2.4519,2.4541,2.4523,2.462,2.4589,2.4594,2.4596,2.4622,2.4632,2.4642,2.4515,2.4514,2.4514,0,0,2.4435,2.4442,2.448,2.4488,2.4499,2.4493,2.4502,2.4508,2.4508,2.4548,2.4523,2.4546,2.4587,2.4594,2.4604,2.4681,2.4662,2.4689,2.4733,2.476,2.4769,2.4777,2.4803,2.4812,2.4695,2.4695,2.4695,0,2.4477,2.4517,2.4503,2.4534,2.4546,2.4517,2.4555,2.4563,2.4581,2.4589,2.4569,2.4617,2.4623,2.4671,2.469,2.4699,2.4708,2.4688,2.4769,2.4776,2.4783,2.4808,2.4818,2.4698,2.4698,2.4697,2.4697,0,2.4568,2.4596,2.4626,2.4642,2.4656,2.4692,2.4681,2.4698,2.4685,2.4682,2.4721,2.4726,2.4747,2.4758,2.4747,2.4805,2.4793,2.4771,2.4736,2.4798,2.482,2.483,2.4702,2.4701,2.47,2.4699,0,0,2.4678,2.4683,2.4695,2.47,2.4709,2.473,2.4763,2.4782,2.4796,2.4808,2.4834,2.4868,2.4847,2.4857,2.4847,2.487,2.4929,2.4845,2.4845,2.4859,2.4991,2.5006,2.5018,2.4916,2.4918,2.4919,2.4989,0,2.4754,2.481,2.4796,2.4851,2.4876,2.4848,2.4876,2.4884,2.4881,2.49,2.4897,2.492,2.4892,2.4897,2.492,2.4917,2.4955,2.4912,2.4939,2.494,2.4936,2.503,2.5047,2.5113,2.4998,2.5,2.5001,0,2.485,2.4864,2.4922,2.4923,2.4933,2.4959,2.4974,2.4994,2.5001,2.4997,2.5008,2.4992,2.5023,2.4987,2.5029,2.5,2.501,2.501,2.5012,2.5013,2.4974,2.5032,2.5134,2.5143,2.5015,2.5014,2.5013,0,2.4922,2.4956,2.4994,2.5,2.5004,2.5022,2.5024,2.503,2.5041,2.5055,2.5062,2.5079,2.5088,2.5102,2.509,2.5065,2.5133,2.5097,2.5129,2.513,2.5144,2.5143,2.5248,2.5153,2.5153,2.5153,2.5152,0,2.5007,2.5043,2.5026,2.5049,2.5088,2.5071,2.511,2.5109,2.5113,2.5135,2.5113,2.5134,2.5117,2.5137,2.5128,2.5162,2.5167,2.5164,2.5161,2.5165,2.5166,2.5171,2.5166,2.5155,2.5155,2.5154,2.5154,0,2.5095,2.5085,2.5124,2.5124,2.5124,2.5152,2.5152,2.5173,2.5167,2.5195,2.52,2.5192,2.5213,2.5203,2.5225,2.5219,2.5263,2.5255,2.5261,2.5258,2.5291,2.5287,2.5402,2.5415,2.5313,2.5314,2.5315,0,2.515,2.5176,2.5178,2.519,2.5194,2.5215,2.5226,2.521,2.5222,2.5231,2.5251,2.527,2.5284,2.532,2.5315,2.5332,2.5323,2.5361,2.5325,2.5328,2.5321,2.5319,2.5321,2.5369,2.537,2.5371,2.5372,0,2.5247,2.524,2.5257,2.5271,2.5285,2.5296,2.5305,2.5317,2.5301,2.5316,2.5336,2.5347,2.5369,2.5388,2.5402,2.5404,2.5385,2.5383,2.5391,2.5395,2.5397,2.5395,2.5279,2.538,2.538,2.5379,2.5378,2.5378,2.5319,2.534,2.5343,2.5362,2.5367,2.5375,2.5394,2.539,2.5407,2.5423,2.5412,2.5436,2.5441,2.5457,2.5461,2.548,2.5464,2.5476,2.5479,2.5482,2.5486,2.5395,2.5482,2.5482,2.5482,2.5482,2.5481,0,2.5414,2.5414,2.5431,2.5443,2.5458,2.5438,2.5446,2.5459,2.548,2.5486,2.55,2.5523,2.554,2.5536,2.5552,2.5567,2.5558,2.5571,2.557,2.557,2.55,2.549,2.5578,2.5578,2.5578,2.5578,2.5578,2.5578,2.5465,2.5499,2.5492,2.5527,2.5527,2.555,2.5556,2.5562,2.5566,2.5593,2.5607,2.5604,2.5605,2.562,2.5635,2.5633,2.5639,2.5655,2.565,2.5585,2.5575,2.5566,2.5557,2.5657,2.5657,2.5719,2.5719,2.572]}]]